Location: Belmont
(13.0833°N, 59.6000°W)
Time: 08:33:35
(UTC+00:00)

Cosmos 2360 Rocket - Pass Details

Date: 17 September 2019
Orbit: 833 x 846 km, 71.0° (Epoch: 19 October)

Event Time Altitude Azimuth Distance (km) Brightness Sun altitude
Rises 22:33:37 0° 359° (N) 3,388 5.4 -9.4°
Reaches altitude 10° 22:36:19 10° 10° (N) 2,455 4.6 -10.1°
Maximum altitude 22:41:17 32° 72° (ENE) 1,415 2.9 -11.3°
Drops below altitude 10° 22:46:16 10° 134° (SE) 2,459 4.2 -12.5°
Enters shadow 22:46:46 - 136° (SE) 2,626 4.3 -12.6°
